Theta_e
310 316 319 318 319 319 319 317 316 319 319 316 316 316 315 313 311 311 310 305 301 305 309 307 306 306 306 306 306 306 305 303 301 300 300 302 302 301 301 301 302 304 305 305 303 302 300 298 297 296 296 295 295 295 295 295 295 295 294 294 294 294 294 293 293 293 293 293 293 293 293 293 292 292 292 292 292 292 292 291 291 291 291 291 291 291
310 317 319 319 317 316 317 314 311 311 310 310 312 312 311 310 310 309 307 306 303 304 309 309 307 307 305 306 306 306 306 304 303 300 300 303 303 301 301 302 303 304 304 303 302 302 300 298 296 295 295 295 295 295 295 295 295 294 294 294 293 293 293 292 293 293 293 293 293 293 293 293 293 292 292 292 292 292 291 291 291 291 291 291 291 291
314 318 319 315 308 307 309 306 308 311 309 310 312 311 312 311 311 311 308 306 305 305 309 310 307 306 307 307 307 307 307 307 307 305 304 305 304 302 302 303 303 303 303 303 302 302 300 298 296 295 295 294 294 294 294 294 294 294 294 293 292 292 292 292 292 293 293 293 293 293 293 293 293 292 292 292 292 291 291 291 291 291 291 291 291 291
319 323 314 304 302 308 310 304 307 310 309 312 312 312 315 312 312 315 311 307 306 306 307 308 306 306 307 307 307 307 305 306 307 306 307 306 305 304 304 304 304 304 304 303 302 301 300 298 296 295 295 295 294 294 294 294 294 294 293 292 292 291 291 292 292 293 293 293 293 293 293 292 292 292 292 292 291 291 291 291 291 291 290 291 291 291
321 317 303 299 305 314 314 306 307 309 311 315 313 312 314 313 313 314 312 308 309 308 304 306 310 310 310 309 309 307 303 304 304 304 306 305 305 305 304 304 305 305 305 303 302 302 301 300 298 297 295 294 294 294 294 294 294 294 293 292 291 291 291 292 292 293 293 293 292 292 292 292 292 291 291 291 291 290 290 291 291 290 290 290 291 291
318 308 301 305 308 312 315 311 311 311 314 319 317 313 312 313 312 310 310 310 314 315 307 307 314 313 313 313 313 312 310 310 307 304 305 305 305 305 305 306 306 306 305 303 303 302 301 301 299 297 295 294 294 294 294 294 294 294 293 292 291 291 291 292 292 292 292 292 292 292 291 291 291 291 290 290 290 290 290 290 290 290 290 290 290 290
315 304 304 313 311 310 313 313 313 311 313 317 315 312 310 309 309 308 309 310 317 318 308 307 316 315 312 314 317 318 318 317 312 309 308 306 306 306 306 308 308 307 307 305 303 302 301 301 299 298 296 295 295 294 294 293 293 293 292 291 291 291 291 291 292 292 292 292 291 291 291 291 290 290 290 290 290 290 289 290 290 290 290 290 290 290
311 306 306 311 312 312 312 313 314 310 314 318 311 310 311 309 310 311 309 310 313 312 308 308 311 312 312 313 316 316 315 315 313 313 310 306 306 308 309 311 311 310 308 306 305 304 302 301 300 300 298 297 295 294 293 293 293 293 292 291 291 291 291 291 292 292 292 291 291 291 291 291 290 290 290 290 289 289 289 289 289 289 290 290 290 290
309 312 312 311 312 312 313 315 312 309 315 316 306 307 310 309 311 311 308 309 309 308 311 310 306 310 313 311 310 309 310 314 314 315 315 308 307 310 312 312 312 311 309 308 307 306 304 302 301 300 299 298 295 294 293 293 293 293 292 291 290 291 291 291 291 291 291 291 291 291 290 290 290 289 290 289 289 289 289 289 289 289 289 290 290 290
308 309 309 311 315 314 314 310 305 310 313 307 303 306 308 308 309 308 308 309 309 310 314 312 307 310 314 313 311 307 308 315 314 314 313 308 307 311 313 312 312 311 310 309 308 306 304 302 301 300 299 297 295 294 293 293 293 293 292 291 290 290 291 291 291 291 291 291 291 290 290 290 290 289 289 289 289 289 288 289 289 289 289 289 290 290
305 302 303 309 311 309 309 303 299 306 306 301 304 310 311 310 307 308 310 310 311 315 315 313 308 309 314 314 312 310 311 316 315 313 312 308 308 311 312 311 311 311 309 308 307 306 304 301 300 299 298 297 295 293 293 292 292 292 292 291 290 290 290 291 291 291 291 291 290 290 290 290 289 289 289 289 289 288 288 289 289 289 289 289 289 289
305 306 307 307 304 303 306 306 300 299 300 303 312 314 315 315 312 313 314 312 314 318 315 310 305 306 312 313 311 310 312 314 313 314 318 315 310 311 311 311 311 310 309 307 306 305 304 301 300 299 298 297 295 293 292 292 292 292 292 291 290 290 290 290 291 291 290 290 290 290 290 289 289 289 289 288 288 288 288 288 289 289 289 289 289 289
313 311 309 305 303 303 312 314 305 301 302 306 314 318 318 318 318 320 318 315 317 317 311 305 305 306 309 310 310 310 311 311 308 308 314 314 310 311 311 310 310 310 309 307 305 305 304 302 302 300 299 298 296 294 293 292 292 292 292 291 290 290 290 291 291 291 290 290 290 290 289 289 289 289 288 288 288 288 288 288 289 289 289 289 289 289
319 313 306 308 306 305 311 315 312 310 307 306 312 318 318 319 321 321 319 314 314 315 309 303 306 309 309 310 310 310 310 310 305 303 308 310 309 310 310 309 309 309 308 307 305 305 304 303 303 302 300 299 297 295 293 292 292 292 292 291 290 290 290 291 290 290 290 290 290 290 289 289 289 288 288 288 288 288 288 288 288 288 288 288 288 288
319 316 312 313 311 308 309 311 315 315 307 306 313 314 315 322 324 320 320 317 315 318 311 304 308 313 312 312 312 308 307 307 305 305 307 308 308 308 307 308 309 308 309 308 306 306 305 304 303 302 301 299 298 296 294 292 292 292 292 291 290 291 290 290 290 290 290 290 290 290 289 289 288 288 288 288 288 288 288 288 288 288 288 288 288 288
314 317 316 308 305 306 307 307 309 312 309 307 310 312 314 319 318 315 317 315 314 317 313 308 311 313 310 311 311 308 307 306 305 304 303 304 305 304 305 308 309 309 310 308 307 307 306 304 303 302 301 300 298 296 294 293 292 292 292 291 290 290 290 290 290 290 290 290 290 290 289 288 288 288 288 288 288 288 288 288 288 288 288 288 288 288
314 318 312 302 303 303 302 303 304 308 311 308 308 312 312 311 313 316 314 309 309 313 314 312 312 311 309 310 310 309 309 307 305 303 301 301 302 301 303 307 309 309 310 309 309 308 307 305 303 302 302 300 298 297 295 293 292 292 291 291 290 290 290 290 290 290 290 290 290 289 289 288 288 288 288 288 288 288 288 288 288 288 288 288 288 288
317 318 310 305 309 302 295 299 301 301 305 311 313 312 308 307 312 316 317 314 313 314 315 315 313 310 310 310 308 307 308 308 307 306 303 300 298 297 301 307 309 310 310 309 308 307 306 305 304 303 302 301 299 297 295 293 292 291 291 290 290 290 290 290 290 290 290 290 290 289 288 288 288 288 288 288 288 288 288 288 288 288 288 288 288 288
316 316 313 305 307 302 295 301 306 301 299 306 310 306 307 313 314 313 314 316 315 314 316 317 312 310 310 310 309 308 308 308 308 306 304 303 299 296 300 308 310 310 310 309 309 309 308 307 306 305 303 301 298 296 294 292 291 291 291 290 290 290 290 290 290 290 290 290 289 288 288 288 288 288 288 288 288 288 288 288 288 288 288 288 288 287
314 315 316 305 301 303 301 305 312 307 300 300 302 302 306 312 314 314 312 313 316 313 313 314 311 310 312 312 312 311 310 310 310 309 308 306 300 297 302 309 311 310 310 310 310 309 309 308 307 305 303 300 298 295 292 291 291 291 290 290 290 290 290 290 290 290 290 289 288 288 288 288 288 288 288 288 288 288 288 288 288 288 288 288 287 287
313 315 316 308 301 304 306 307 310 310 305 302 304 305 305 307 310 312 310 311 315 314 313 313 311 310 313 314 315 312 310 309 309 311 312 307 301 301 307 311 311 311 310 310 310 309 309 308 306 304 301 299 296 294 292 291 291 290 290 290 290 290 290 290 290 290 289 288 288 288 288 288 288 288 288 288 288 288 288 288 288 288 287 287 286 286
314 315 315 312 307 307 309 307 305 308 308 305 306 307 306 306 309 312 310 309 311 313 315 315 311 310 311 313 314 314 314 313 309 310 312 305 302 306 310 310 310 310 310 309 309 308 308 307 305 303 301 298 295 293 292 291 291 290 290 290 290 290 290 290 290 290 289 288 288 288 288 288 288 288 288 288 288 288 288 288 288 287 287 286 285 285
314 317 314 314 314 310 306 302 299 303 306 306 307 307 307 307 308 311 311 310 310 310 310 311 311 310 312 316 318 317 318 314 306 306 308 304 304 309 310 309 310 309 309 309 308 307 307 306 304 302 300 298 295 293 292 291 290 290 290 290 290 290 290 290 290 289 288 288 287 288 288 288 288 288 288 288 288 288 288 288 287 287 286 285 285 284
311 315 313 313 316 312 304 299 298 301 304 307 307 306 306 306 307 310 310 310 312 311 310 311 311 310 311 316 320 318 314 307 301 301 304 302 305 309 309 309 309 308 308 308 307 306 305 304 302 301 299 297 295 293 292 291 290 290 290 290 290 290 290 290 289 288 288 287 288 288 288 288 288 287 287 288 288 288 288 287 287 286 285 285 284 284
311 315 314 313 316 315 310 305 304 303 304 307 309 306 306 306 306 309 308 307 310 310 309 311 310 309 310 312 313 312 310 308 303 299 300 301 304 307 308 308 307 307 307 306 306 305 304 303 302 301 299 297 294 293 292 290 290 290 290 290 290 290 290 289 289 288 287 288 288 288 288 287 287 287 288 288 288 288 287 287 286 285 285 284 283 283
314 316 314 313 314 315 313 311 311 309 305 305 308 306 305 306 306 307 308 308 309 308 308 309 309 309 309 310 309 307 307 309 303 297 297 300 302 305 305 306 305 305 306 305 305 304 303 303 302 300 298 296 294 293 292 290 290 290 290 290 290 290 289 289 288 287 287 287 287 288 287 287 287 287 288 288 288 287 287 286 285 285 284 283 283 282
316 316 312 313 314 312 312 310 313 313 309 307 308 307 305 306 305 307 308 309 309 309 308 308 309 309 309 309 309 307 308 309 306 302 299 299 301 303 304 304 304 304 304 303 303 302 302 301 301 300 298 296 294 293 291 290 290 290 290 290 290 289 288 288 288 287 287 287 287 287 287 287 287 287 288 288 287 287 286 285 285 284 283 283 282 282
315 314 311 313 313 311 312 310 311 311 310 309 309 307 306 305 305 307 308 308 309 310 310 309 308 309 309 308 308 308 308 308 308 307 304 303 304 305 304 304 303 303 303 301 301 302 301 301 300 299 298 296 294 292 290 289 290 289 290 290 289 289 288 288 287 287 287 287 287 287 287 287 287 287 288 288 287 286 285 285 284 283 283 282 282 282
312 312 311 313 312 311 310 310 310 309 308 308 309 308 307 305 304 306 307 307 308 309 309 309 309 309 309 308 308 308 308 307 307 307 306 306 306 306 305 304 303 303 302 300 301 302 302 301 301 300 298 296 294 291 290 289 289 289 289 289 289 288 288 287 287 287 287 287 287 287 287 287 287 288 288 287 286 285 285 284 283 283 282 282 282 282
308 310 311 311 310 311 310 309 309 308 307 307 307 308 308 306 305 305 306 306 307 308 308 308 309 308 308 308 308 308 307 307 306 306 305 305 305 305 305 303 302 302 301 301 302 302 302 302 301 299 298 296 293 291 290 289 289 289 289 289 288 288 287 287 287 287 287 287 287 287 287 287 287 288 287 286 285 285 284 283 283 282 282 282 282 282
306 309 311 310 310 311 310 309 309 308 307 307 307 307 307 306 305 304 304 305 306 306 306 306 307 307 307 307 307 307 306 306 305 305 305 305 305 305 305 303 303 302 301 302 302 302 301 301 299 298 297 295 294 292 290 289 289 289 289 289 288 287 287 287 287 287 287 287 287 287 287 287 288 288 286 285 285 284 283 283 282 281 281 282 282 282
307 308 310 309 310 310 310 310 310 309 307 307 307 308 307 307 306 305 305 305 306 306 306 306 307 307 306 307 307 307 307 307 307 306 305 305 306 305 305 305 304 303 303 303 303 301 301 300 299 298 297 296 294 291 290 289 289 289 289 288 288 287 287 287 287 287 287 287 287 287 287 288 288 287 286 285 284 284 283 282 281 281 281 282 282 282
308 309 309 309 309 310 310 311 311 310 309 308 308 308 308 308 308 307 307 307 306 306 306 306 307 307 307 307 308 308 308 308 308 306 305 305 305 305 305 305 305 305 305 305 304 303 302 302 301 300 298 297 294 292 290 289 289 289 289 288 287 287 287 287 287 287 287 287 287 287 287 288 287 286 285 284 284 283 282 281 281 281 281 282 282 281
308 308 308 309 309 310 311 311 311 311 310 310 311 311 310 309 309 308 308 308 308 307 306 306 306 307 307 307 307 307 307 307 307 306 306 306 305 305 306 306 306 306 306 306 305 304 303 302 301 299 297 296 294 291 290 289 289 289 288 288 287 287 287 287 287 287 287 287 287 287 288 287 286 285 285 284 283 282 281 281 280 281 281 281 281 281
307 307 307 308 309 309 309 310 310 311 310 310 312 313 312 310 310 310 309 308 309 308 307 307 307 306 307 307 307 307 306 306 307 307 307 306 306 306 307 306 306 306 306 306 304 304 303 302 300 298 297 295 293 291 289 288 289 288 288 287 287 287 287 287 287 287 287 287 287 287 287 287 285 285 284 284 283 281 281 280 280 281 281 281 281 281
308 307 307 308 308 308 308 309 310 311 310 310 311 311 309 309 309 309 308 309 308 308 308 308 307 307 308 308 307 307 307 307 306 307 307 306 306 307 306 306 306 306 306 306 305 304 303 302 301 300 299 296 293 290 289 289 289 288 287 287 287 287 287 287 287 287 287 287 287 287 287 286 285 284 284 283 282 281 280 280 280 280 281 280 280 280
307 308 307 307 309 309 308 309 310 310 310 310 309 309 309 309 309 308 309 309 308 308 308 308 307 308 307 307 307 306 306 306 306 307 306 306 306 307 306 306 307 306 306 306 304 303 302 301 301 300 298 296 292 290 289 288 288 288 287 287 287 287 287 287 287 287 287 287 287 287 286 285 284 284 283 282 281 280 280 280 280 280 280 280 280 280
307 308 308 308 309 310 310 309 310 310 310 310 309 309 310 309 309 309 309 309 309 308 308 308 308 308 307 308 307 306 306 307 307 307 307 307 307 306 306 306 306 306 305 304 303 302 301 300 299 298 297 294 291 289 288 288 288 287 287 287 287 287 287 287 287 287 287 287 287 287 285 284 284 284 282 281 281 280 280 280 280 280 280 279 279 279
307 307 307 308 308 309 311 310 310 311 311 310 309 310 308 306 307 309 309 309 309 308 308 308 308 308 308 308 307 307 308 308 308 308 308 308 307 306 306 306 305 305 304 303 302 301 300 300 298 297 295 292 290 289 288 288 288 287 287 287 286 286 287 287 287 287 287 287 287 286 284 284 284 283 281 280 280 279 279 279 280 279 279 279 278 278
308 307 307 308 308 309 310 310 310 311 310 310 311 309 304 302 306 310 310 310 310 309 308 308 308 308 308 307 307 309 309 308 308 309 308 308 307 306 306 305 305 305 304 303 302 300 299 298 297 296 293 291 290 289 288 288 287 286 286 287 286 287 287 287 287 287 287 287 286 284 284 283 283 282 281 280 279 279 279 279 279 279 278 278 278 278
307 307 307 307 308 309 309 310 311 310 310 312 311 306 302 303 309 311 311 311 311 310 307 307 308 307 307 306 306 307 308 308 309 309 307 307 306 306 306 305 305 303 302 301 302 301 299 297 296 295 293 291 289 288 288 287 287 286 286 286 286 287 287 287 287 287 287 286 285 283 283 283 282 281 280 279 279 278 279 279 279 278 278 277 277 277
307 307 308 308 308 308 309 310 310 309 310 310 307 303 303 308 311 311 310 310 310 308 305 305 306 306 306 306 305 306 307 308 308 308 307 307 306 305 305 305 304 302 300 299 299 299 298 296 294 292 291 289 288 288 288 287 286 286 286 286 286 287 287 287 287 287 287 285 284 282 282 282 281 280 279 279 278 278 278 279 278 277 277 276 276 276
309 309 309 308 308 308 309 309 310 311 311 309 306 304 306 309 311 310 309 309 309 308 305 305 305 306 306 305 305 306 308 308 307 306 307 307 306 305 304 303 303 303 302 301 299 298 296 294 292 291 290 288 287 287 287 286 286 286 286 286 287 287 287 287 287 287 286 284 283 282 281 281 280 279 278 278 278 278 278 278 277 277 276 276 276 276
310 311 310 309 309 309 309 310 310 311 311 309 307 307 307 308 309 309 309 309 309 309 308 307 306 306 306 305 306 307 307 306 305 305 306 307 306 305 303 302 301 301 301 300 299 298 295 293 292 290 288 288 287 287 286 286 286 286 286 286 287 287 287 287 287 286 285 283 282 281 281 280 279 278 278 278 278 278 278 278 277 276 275 275 275 275
311 312 312 311 310 310 311 311 310 309 309 307 307 308 308 307 308 309 309 309 308 309 309 308 308 308 307 306 306 306 306 306 305 305 306 306 307 307 305 303 301 300 299 298 297 296 294 293 291 290 288 287 286 286 286 286 286 286 286 286 287 287 287 287 286 285 283 282 281 280 280 279 278 278 278 278 277 278 277 277 276 276 275 275 274 274
311 311 312 311 311 311 311 311 310 310 309 307 307 308 308 308 308 308 308 308 308 309 309 308 308 308 308 307 305 305 306 306 306 306 306 306 306 306 304 302 299 297 296 296 295 294 292 291 290 289 288 286 286 285 285 285 285 286 286 287 287 287 287 286 286 284 282 281 280 279 279 278 277 278 278 277 277 277 277 276 276 275 274 274 274 274
311 311 311 311 312 312 312 311 311 310 309 307 306 307 307 308 308 308 307 307 307 308 308 307 307 308 307 306 306 306 307 307 306 306 305 304 304 304 303 301 299 297 296 296 296 294 292 290 289 288 287 286 286 285 285 285 285 286 286 287 287 287 286 286 285 283 281 280 279 278 278 277 277 278 278 277 276 276 276 275 275 274 274 274 273 273
312 311 311 311 311 312 312 312 311 310 309 308 307 306 306 307 307 307 307 307 307 307 307 307 307 307 306 306 306 306 306 306 306 305 304 304 304 303 302 300 299 297 295 294 294 293 291 290 289 288 287 287 286 285 285 285 286 286 286 286 287 286 286 285 284 282 281 279 278 278 277 277 277 278 277 276 276 275 275 275 274 274 274 273 273 273
311 311 312 312 311 311 311 311 311 310 310 309 308 307 307 307 307 307 307 307 307 307 307 307 307 306 306 306 306 305 305 305 305 305 305 304 303 303 301 300 299 296 294 293 293 292 291 290 288 287 287 287 286 285 285 285 286 286 286 286 286 286 285 284 283 281 280 278 278 277 278 277 277 277 277 276 275 274 274 274 274 273 273 272 272 272
310 310 311 311 311 312 312 311 311 311 311 310 309 308 308 308 308 307 307 307 307 307 307 307 307 306 306 305 305 305 304 305 305 304 304 304 304 303 302 300 296 294 293 293 292 291 290 289 288 287 287 286 286 285 285 285 286 286 286 286 286 285 284 283 281 280 279 278 277 277 277 277 277 277 276 275 275 274 273 273 272 272 272 272 272 271
310 310 311 311 311 311 312 311 311 310 311 311 310 310 310 309 308 308 307 308 308 308 308 307 306 306 305 305 305 304 303 305 305 304 303 303 303 302 301 299 296 294 292 291 291 289 287 286 286 287 286 286 285 285 285 285 286 286 286 286 285 284 283 282 280 279 278 277 277 277 277 277 277 276 275 274 274 273 273 273 272 271 271 271 271 271
Wind_Speed
3 1 4 7 8 7 9 9 6 4 6 5 4 4 5 5 7 6 3 3 1 2 8 9 9 13 17 18 22 22 14 19 27 22 25 33 36 34 33 36 38 41 43 41 42 43 43 42 41 40 38 37 35 34 32 30 28 25 22 21 20 19 17 15 13 12 11 10 9 8 8 9 10 10 12 13 14 15 16 17 18 19 21 22 24 26
4 3 9 10 9 7 6 6 6 5 5 4 4 4 5 4 7 7 2 4 2 1 6 7 7 13 17 16 21 22 11 17 25 19 25 37 36 33 33 37 39 39 40 39 42 43 43 44 42 41 39 38 37 36 34 31 28 25 23 22 20 19 17 15 14 12 11 10 9 9 9 10 10 11 12 13 15 16 17 18 19 20 22 23 25 27
1 6 12 7 7 6 4 5 6 5 5 3 3 2 4 4 5 6 3 4 2 2 4 6 8 15 18 17 22 23 15 21 29 23 31 39 33 31 34 37 37 36 38 39 41 42 43 45 43 42 41 40 39 36 34 31 28 26 24 22 21 19 17 16 14 13 12 11 11 10 11 11 11 12 13 14 15 16 17 18 20 21 23 24 25 27
2 8 8 5 10 8 5 4 6 5 3 3 3 3 5 3 1 4 4 4 1 2 4 7 11 13 15 16 18 18 14 21 29 28 35 38 32 33 35 34 33 35 37 38 39 39 42 45 46 46 45 43 40 37 35 33 30 28 25 22 21 20 18 17 16 14 13 12 12 12 12 12 12 13 14 15 16 17 17 17 19 21 22 24 25 27
7 7 4 8 6 7 6 3 5 5 2 3 5 6 6 4 5 6 3 4 3 2 3 6 11 10 7 10 10 6 5 12 19 21 29 34 33 33 32 31 32 33 35 35 36 37 39 44 48 49 48 46 43 41 39 36 33 29 25 23 23 21 20 19 17 15 14 13 13 13 13 13 14 14 15 16 16 17 18 18 19 20 23 25 26 28
9 6 10 8 3 6 6 4 5 7 3 4 6 10 9 7 7 5 3 5 4 3 3 5 8 9 1 3 6 4 3 7 8 9 20 27 25 26 29 30 31 31 31 32 33 34 36 40 46 49 49 48 46 44 41 37 33 29 26 25 24 23 22 19 17 16 15 14 14 14 14 14 15 15 16 18 18 19 19 20 21 21 23 25 27 28
4 3 6 6 5 5 5 5 6 8 5 3 5 7 7 5 4 3 1 2 1 3 3 4 1 9 2 4 4 4 4 9 8 8 16 22 22 22 27 28 27 27 28 29 30 31 33 36 42 48 50 50 48 45 41 37 33 29 27 27 26 25 22 20 18 16 16 15 15 15 15 15 16 16 17 18 20 21 21 21 22 23 23 25 27 28
2 4 4 4 6 5 5 6 6 9 7 3 3 5 6 6 5 5 3 2 3 1 3 0 3 9 8 4 4 3 4 10 13 14 14 18 24 24 25 24 22 22 23 24 27 29 31 34 38 44 48 50 49 45 41 37 34 31 29 28 27 25 23 21 19 17 17 16 16 16 16 16 17 18 18 19 21 21 22 23 23 23 24 24 26 29
3 5 5 7 6 4 6 5 8 11 5 4 4 6 6 6 6 5 4 3 2 3 4 4 4 5 10 5 2 3 4 9 12 16 13 13 20 20 18 18 16 16 18 21 23 26 28 31 33 38 42 46 47 45 41 38 35 32 30 29 28 26 24 22 20 18 18 17 17 17 17 17 18 19 20 21 22 22 23 23 23 24 25 26 27 29
2 3 6 8 6 6 5 1 5 8 3 4 6 6 5 4 4 3 3 2 1 1 7 8 7 5 9 4 3 2 4 9 11 12 11 13 19 18 14 12 11 13 16 18 20 22 25 27 28 32 37 42 45 44 41 38 35 33 32 30 29 27 25 23 21 19 18 17 17 17 17 18 18 20 22 22 22 23 24 24 25 26 27 28 29 30
1 2 1 4 5 5 5 3 2 3 4 8 7 5 5 4 4 3 1 3 1 4 8 9 12 10 8 3 5 4 5 9 10 9 8 11 17 18 14 10 10 14 17 17 18 20 22 24 26 30 35 39 42 43 41 39 37 36 34 31 29 28 26 24 22 20 19 18 18 18 18 18 19 20 22 22 22 23 24 25 26 27 28 29 30 31
2 1 2 3 5 7 8 5 4 4 5 6 4 3 3 4 3 4 4 3 1 6 5 4 8 10 9 6 4 6 7 8 10 9 9 9 14 16 12 11 13 16 18 18 17 18 20 22 25 29 32 36 40 43 43 42 40 38 35 33 30 29 27 25 22 20 19 18 18 18 18 19 20 21 21 22 22 23 24 26 27 28 29 30 31 32
2 4 2 2 5 7 6 4 3 3 2 4 3 4 3 4 3 4 3 1 3 7 3 1 3 5 12 11 8 9 10 11 11 12 12 10 13 16 15 15 17 18 20 20 18 18 19 21 24 26 30 34 39 43 45 44 42 39 36 34 31 30 28 25 22 20 19 19 18 18 19 19 20 20 21 21 22 23 25 27 28 29 31 31 32 33
3 4 2 3 4 9 10 6 3 2 3 6 5 5 3 1 1 3 4 2 5 7 3 3 3 4 9 8 12 16 17 17 16 19 20 16 16 19 19 20 21 22 23 22 20 19 19 21 22 24 27 32 37 42 45 45 42 40 37 35 32 30 28 25 23 20 19 19 18 18 19 19 19 19 19 20 22 24 26 28 29 30 32 33 34 36
4 7 5 7 3 10 13 8 6 6 5 5 4 5 5 5 4 5 4 4 7 6 3 1 2 4 4 4 9 15 17 20 21 24 25 22 23 23 23 24 24 25 25 23 22 20 20 20 21 23 26 30 35 40 44 45 43 41 39 36 33 30 28 25 23 20 19 19 18 18 18 18 18 18 19 20 22 24 26 27 29 30 32 34 36 38
4 9 6 2 1 9 10 4 6 8 4 2 3 4 3 5 5 3 3 4 1 4 5 3 4 6 4 3 4 4 7 15 19 20 21 24 26 23 22 26 27 27 26 24 23 20 20 21 22 24 26 29 33 39 44 46 44 43 40 36 33 30 28 25 22 21 19 19 18 18 18 17 17 17 19 20 22 24 25 26 29 31 33 35 38 40
3 6 2 3 1 3 3 1 3 3 3 3 2 4 4 3 5 3 3 1 5 3 6 2 5 10 6 4 6 6 6 10 11 11 15 21 22 18 22 28 29 28 26 24 23 20 20 21 22 24 26 29 33 38 43 45 45 43 40 36 33 30 28 25 23 21 19 18 18 18 17 16 17 18 19 21 22 23 25 27 30 33 35 37 40 42
4 4 3 2 1 1 2 2 3 3 3 5 4 5 3 2 4 3 2 3 2 5 5 4 11 15 12 7 3 6 8 11 11 10 12 16 15 16 25 31 30 27 24 24 22 20 20 22 23 24 26 29 33 37 42 44 44 42 39 36 32 29 27 24 23 21 19 18 18 17 16 16 17 18 19 21 22 23 25 28 31 34 37 39 41 44
4 4 4 2 1 0 2 2 2 3 2 5 4 2 4 3 2 2 2 2 4 4 4 11 17 17 14 9 4 7 11 14 13 11 11 11 11 18 27 31 29 27 25 25 23 21 21 22 23 24 26 30 34 37 41 43 43 42 39 35 32 29 27 25 23 21 19 19 17 16 16 16 17 18 19 20 22 24 26 30 33 36 39 41 43 46
4 4 4 1 1 0 2 1 5 3 1 2 0 0 2 2 4 3 3 3 3 3 5 12 16 15 11 7 8 13 14 13 12 10 10 10 14 22 28 29 28 27 26 25 23 21 22 22 24 26 28 31 35 38 42 44 44 42 38 35 32 29 27 25 23 21 20 19 17 16 16 16 17 17 19 20 22 25 28 31 35 38 41 43 45 46
3 3 5 0 3 1 3 6 9 9 7 4 3 3 2 1 2 1 2 2 3 4 4 6 12 17 8 8 11 12 11 12 12 11 9 10 18 26 27 28 27 27 26 24 22 22 22 24 25 28 30 33 36 40 43 45 44 41 38 35 32 29 27 25 23 22 20 18 16 16 16 16 17 18 19 20 23 27 30 34 37 40 42 44 45 46
3 4 6 3 1 5 7 6 4 5 8 9 8 8 8 6 4 1 5 3 3 4 5 4 10 18 7 7 6 7 8 9 11 11 9 12 21 25 25 26 26 26 26 23 22 23 23 25 27 29 32 34 37 41 45 46 44 41 38 34 31 29 27 26 24 21 19 17 16 16 16 16 17 18 19 21 24 28 32 35 38 40 43 44 45 45
4 2 4 6 6 7 5 2 1 2 4 5 4 6 7 6 6 6 8 5 1 2 3 3 5 18 9 7 5 6 8 9 12 13 10 13 21 23 22 25 25 25 25 23 23 25 25 27 29 31 33 35 39 43 46 47 45 41 38 34 32 29 27 26 23 21 19 17 17 16 16 16 17 18 20 22 26 30 34 37 39 41 42 44 45 44
4 2 4 5 5 3 3 3 2 2 3 3 4 4 6 7 9 8 6 3 2 5 4 3 5 19 12 4 5 5 6 8 11 14 13 12 17 21 22 24 24 25 25 24 26 27 27 29 31 32 35 36 40 45 47 47 45 41 38 35 32 30 28 25 22 20 19 17 17 16 16 17 17 18 21 24 28 32 35 37 39 41 42 43 44 43
6 2 4 2 4 5 4 2 2 3 0 3 5 5 7 10 8 3 0 2 4 9 8 5 10 19 11 3 5 3 4 5 6 11 14 13 16 21 22 23 23 24 25 26 28 28 29 30 32 33 35 37 41 45 47 47 44 40 37 34 31 29 27 25 22 20 19 17 16 16 16 16 17 19 23 26 30 33 35 37 39 40 41 42 42 41
9 3 6 6 7 10 11 10 5 2 2 3 3 6 11 14 14 8 3 5 11 10 9 8 15 20 15 8 5 3 4 5 6 8 13 16 20 23 23 25 26 26 28 30 30 29 29 31 32 33 34 37 41 45 47 46 43 40 37 33 31 29 26 24 22 20 18 17 16 16 16 16 18 21 24 28 32 34 35 37 38 39 40 39 39 39
5 3 11 14 15 14 14 15 6 6 5 6 7 10 13 15 17 12 7 11 11 4 6 15 24 22 20 23 22 11 6 8 10 8 10 17 22 25 28 30 30 29 30 31 30 29 30 31 32 33 35 37 41 45 46 45 42 40 37 33 31 28 26 24 21 20 18 16 16 15 15 17 19 22 26 30 32 34 35 36 37 38 37 37 37 38
2 4 13 17 20 18 18 21 13 6 8 11 10 13 15 14 16 14 16 21 11 5 9 25 25 17 17 27 34 24 12 13 15 12 13 19 25 28 29 29 27 28 30 29 28 29 31 32 32 33 35 37 41 45 46 43 41 39 36 33 30 28 25 24 21 19 17 16 15 15 15 17 20 24 27 30 32 33 34 35 36 35 35 35 36 37
2 7 14 16 21 22 20 25 22 12 10 10 10 14 16 17 19 20 24 27 18 12 20 24 17 13 18 29 34 25 15 13 15 19 22 24 25 24 24 24 24 27 28 28 29 31 32 33 33 34 35 37 41 45 45 44 41 39 36 32 30 28 25 23 20 18 17 16 15 15 16 18 22 25 29 31 31 32 34 34 34 34 33 34 35 36
2 6 13 16 19 20 21 26 24 15 11 12 11 12 17 20 21 22 26 30 28 26 25 22 18 17 24 31 27 21 20 16 15 22 26 24 23 23 24 25 25 28 30 30 32 33 32 34 34 34 35 37 41 45 46 45 43 39 36 32 30 28 25 22 20 18 17 16 14 15 17 20 23 27 29 30 31 32 33 32 32 32 32 33 34 35
4 7 11 11 11 15 21 24 20 15 15 16 13 14 23 24 17 18 26 28 26 24 21 20 20 20 26 28 18 18 27 23 15 21 28 31 31 28 28 28 28 30 33 33 34 34 33 34 34 35 36 37 41 45 46 46 44 39 35 32 30 27 24 21 19 18 16 15 15 16 18 21 25 27 28 29 30 31 31 31 31 31 32 33 33 34
4 6 6 7 9 12 18 19 14 11 10 11 14 23 30 25 16 20 26 22 17 16 17 18 17 18 24 19 10 12 19 15 13 19 26 32 33 29 29 33 34 34 34 35 36 34 33 35 36 36 36 37 40 44 47 47 43 38 35 32 30 26 23 21 19 17 16 15 15 17 19 22 25 27 27 28 29 30 30 30 30 31 32 32 32 33
6 6 6 7 9 12 16 14 6 5 4 8 15 23 27 23 20 24 25 21 15 12 13 16 17 21 22 16 13 15 12 8 14 21 26 30 30 29 32 38 39 37 36 37 37 35 34 36 36 36 35 37 40 44 47 46 42 37 34 32 29 26 23 21 19 16 15 15 16 18 20 23 25 26 26 27 28 29 29 29 30 30 31 31 31 32
6 8 8 7 9 12 12 6 4 5 10 13 8 9 16 21 24 25 25 22 16 12 13 17 20 25 25 21 20 20 17 18 26 34 37 33 27 29 36 41 40 37 36 37 36 34 34 34 34 34 34 35 39 42 45 44 40 36 34 31 29 26 23 21 18 16 15 14 16 18 21 24 25 25 26 26 27 28 28 29 29 29 30 30 30 32
8 10 9 6 7 7 2 5 5 11 14 9 3 5 13 15 16 19 20 18 14 15 19 21 23 27 29 26 22 20 26 34 41 47 44 31 26 34 41 43 40 37 38 39 36 34 33 32 32 33 33 36 38 41 45 44 39 36 35 32 29 26 23 20 18 15 14 14 16 19 21 23 23 23 25 25 26 27 27 28 29 28 29 29 30 32
12 9 7 6 7 3 3 8 12 10 5 4 9 15 13 8 9 12 15 14 13 17 22 21 22 28 29 25 24 29 36 36 38 45 41 26 30 43 45 43 42 40 41 41 37 34 31 30 31 31 32 35 38 41 45 44 41 37 35 32 29 26 22 19 17 14 13 14 17 19 21 22 22 22 24 24 25 26 27 28 27 27 28 29 29 31
13 10 7 8 9 7 8 12 11 8 8 9 17 20 11 8 11 12 11 13 14 19 23 19 20 28 25 20 26 35 32 21 19 31 36 31 36 44 42 40 40 39 39 37 32 28 26 26 28 30 32 34 36 41 45 44 40 38 34 31 28 25 22 18 15 13 13 14 17 19 20 20 20 21 22 23 24 25 26 27 26 26 28 29 30 31
15 13 10 10 10 9 10 10 8 9 11 14 24 25 11 10 12 9 6 10 16 24 25 18 20 26 22 21 26 22 15 10 8 18 34 37 34 34 32 31 31 29 29 27 25 24 24 25 28 29 30 33 36 42 45 42 39 37 34 31 27 24 21 17 14 13 13 15 17 18 19 19 19 20 21 22 24 25 25 26 25 26 27 28 30 31
18 13 12 12 9 8 10 10 9 11 11 13 22 23 11 12 10 5 2 11 21 27 25 18 21 25 21 21 21 9 4 9 8 15 34 39 29 25 26 25 23 22 21 21 21 21 22 24 26 28 30 32 38 43 44 41 38 36 33 30 27 23 19 16 13 12 13 15 17 17 17 17 18 19 20 21 23 24 25 25 25 25 26 27 29 31
16 11 11 12 11 12 13 11 9 8 7 10 16 14 8 17 13 6 4 16 21 21 21 19 20 23 20 18 16 8 8 11 12 20 33 31 21 20 21 20 20 20 20 20 20 19 20 22 25 30 32 34 40 44 44 41 38 36 33 29 26 22 18 15 13 12 13 14 15 15 15 15 16 18 19 20 22 22 23 24 24 25 25 26 28 30
9 10 11 12 14 16 15 13 10 7 6 11 12 6 15 18 10 4 13 22 15 10 17 21 19 22 23 17 12 11 16 26 30 30 29 22 17 18 17 17 20 19 18 19 18 18 21 23 26 29 32 36 41 44 43 41 38 35 32 28 25 21 17 14 12 12 12 13 13 13 13 14 15 17 18 20 21 21 22 23 24 25 25 26 27 29
5 6 8 10 11 12 13 13 11 5 9 14 10 16 18 10 5 11 21 28 18 7 15 22 22 25 27 23 20 22 30 38 40 34 29 25 22 21 20 20 22 21 19 18 18 19 21 24 27 30 34 39 44 44 43 41 38 35 31 27 23 20 16 13 12 11 12 12 12 11 12 13 15 16 17 19 21 20 20 21 22 24 24 25 26 29
10 7 6 8 9 8 8 10 8 6 14 19 15 13 11 10 15 19 21 27 29 22 19 22 24 28 28 25 28 34 36 37 35 33 34 32 27 25 24 23 23 24 23 22 21 21 24 28 32 35 38 43 45 44 42 40 37 34 30 26 22 18 15 13 11 11 10 10 10 10 10 12 14 15 16 19 20 19 20 20 21 22 24 24 25 28
10 8 6 6 9 8 7 11 11 10 15 24 22 11 15 28 37 35 23 20 29 34 27 23 28 33 30 27 30 35 36 34 32 33 35 33 30 29 27 25 25 26 26 24 23 24 27 30 35 39 42 45 46 43 41 39 36 33 29 25 21 17 14 12 11 9 9 9 9 8 9 11 12 13 16 18 19 18 18 19 20 21 22 23 24 27
13 15 13 11 10 11 12 13 11 11 14 25 30 26 31 44 53 51 39 27 27 33 32 27 29 33 32 32 33 32 34 35 35 36 37 34 33 33 31 29 29 29 28 26 26 27 30 33 37 42 46 47 45 43 40 37 34 31 28 24 20 16 14 12 10 8 8 8 8 7 8 10 11 13 15 17 18 17 17 18 19 20 21 22 24 26
16 19 18 13 10 12 15 11 6 9 14 22 34 40 41 44 48 52 49 39 34 37 37 30 28 30 31 32 32 31 36 39 39 40 40 37 35 35 33 32 31 30 30 30 30 31 34 36 40 45 48 48 46 43 40 36 32 29 26 22 19 16 14 11 8 8 8 8 7 6 7 10 11 12 14 15 16 16 16 18 19 20 21 23 24 25
14 17 16 13 10 11 13 11 12 16 19 22 31 39 42 44 46 47 47 44 45 47 42 34 32 32 29 29 31 35 40 41 40 41 41 39 38 37 36 35 35 36 36 34 34 35 38 41 45 48 50 49 46 43 40 37 33 29 25 21 18 16 13 10 8 8 8 8 7 6 7 8 10 12 13 14 13 13 15 17 18 19 21 23 24 26
9 14 15 14 14 14 14 14 16 21 26 31 33 32 35 43 47 46 46 46 46 45 41 38 37 35 33 34 37 40 41 41 41 42 42 41 41 40 39 39 39 39 38 37 36 38 41 45 49 51 51 50 47 44 40 36 32 29 24 21 18 16 12 9 8 8 9 8 7 7 7 8 9 10 11 12 12 12 13 14 15 17 20 21 23 25
4 7 9 10 13 16 16 15 14 15 19 25 30 33 38 44 46 47 48 45 41 40 42 42 41 41 41 43 44 43 41 41 43 44 44 43 43 43 42 42 42 42 42 40 39 40 43 47 50 52 51 49 46 43 39 35 31 27 23 20 18 15 11 9 9 9 9 8 7 7 8 8 8 9 9 9 9 11 13 15 16 16 17 18 19 20
7 6 5 7 11 12 12 13 16 16 13 16 26 36 41 44 43 43 43 40 39 42 46 47 47 46 45 45 46 43 41 44 47 45 44 45 46 46 45 44 43 44 43 41 40 42 45 48 51 51 49 47 45 42 38 34 30 26 23 20 17 13 10 9 9 9 9 8 8 7 8 8 8 8 8 6 5 7 9 13 16 17 17 17 17 17
11 10 8 9 13 14 13 14 15 15 14 19 31 39 41 42 42 41 42 44 45 47 48 49 48 47 46 49 50 45 44 49 50 46 45 46 47 47 46 46 46 46 45 44 43 45 48 50 50 49 47 45 43 40 36 33 29 25 22 20 16 13 10 9 9 9 9 8 7 7 7 8 7 8 7 6 5 5 5 6 8 12 15 17 17 16
Wind_Direction
115 197 226 227 220 206 211 201 193 179 146 140 150 187 232 241 265 265 249 288 41 206 258 251 248 262 265 268 274 272 256 251 255 252 254 257 255 250 246 246 244 243 247 245 237 233 229 228 227 227 226 224 222 222 223 224 226 227 228 230 230 231 233 234 239 245 251 259 268 276 285 291 295 301 305 307 307 308 305 304 305 306 308 311 313 314
98 203 240 232 211 197 199 179 138 119 118 115 156 209 256 234 255 270 279 318 353 171 263 279 277 268 265 266 272 269 245 246 254 243 249 257 256 253 249 249 249 250 250 246 240 235 229 227 226 226 225 223 223 223 223 225 226 228 230 230 230 231 233 235 241 247 254 262 271 277 282 290 297 301 306 307 305 306 305 305 306 308 310 312 313 313
85 237 250 222 160 121 88 121 124 122 121 114 140 178 262 241 269 294 326 345 8 195 269 297 287 271 267 264 265 264 247 250 257 248 251 258 256 253 252 251 251 251 250 246 243 237 230 227 225 225 226 225 225 225 225 226 227 229 230 229 229 230 233 237 244 250 258 266 273 279 284 294 302 303 306 307 305 305 306 307 307 310 311 311 312 313
195 252 256 170 139 115 82 104 113 104 120 152 150 177 251 246 281 286 307 327 277 218 277 291 279 268 264 259 260 267 259 255 259 255 255 258 255 255 256 256 255 253 252 248 244 239 232 227 225 226 226 225 224 223 224 225 226 229 229 228 229 230 233 239 247 254 262 268 274 280 287 295 302 303 304 305 305 304 304 305 306 308 308 309 312 315
230 237 153 122 128 121 116 138 136 143 218 244 198 206 238 233 223 237 283 323 310 315 330 310 292 278 251 248 260 290 287 262 258 253 254 254 252 254 256 257 257 256 255 251 246 242 236 230 228 227 227 225 223 223 224 225 227 229 229 229 229 230 234 240 248 255 262 268 274 281 288 295 299 302 303 302 302 301 303 306 307 309 310 312 316 317
251 215 146 130 109 118 138 194 188 174 203 291 231 213 222 226 234 251 324 352 356 332 335 10 323 298 233 203 262 299 323 280 260 245 255 258 255 251 252 255 257 258 257 254 251 247 242 236 230 227 226 225 225 225 225 226 228 229 228 227 228 231 235 241 249 255 262 267 272 280 286 291 294 298 300 300 301 303 306 310 311 313 315 317 319 319
254 164 142 151 158 154 177 233 222 172 153 289 247 202 199 200 208 228 7 12 294 255 303 55 335 281 270 146 243 274 291 283 272 258 260 264 264 255 255 260 260 260 259 255 253 250 246 239 231 228 228 227 227 226 225 225 226 225 225 227 229 232 236 242 249 255 261 266 271 278 283 287 291 295 299 301 303 306 309 312 314 316 320 320 320 319
140 106 91 120 141 160 194 242 218 157 141 238 233 132 136 151 171 185 142 168 238 273 320 329 177 274 275 215 245 276 268 279 277 272 269 264 263 259 259 264 264 265 265 260 258 254 250 242 235 233 232 230 229 226 224 223 224 224 226 229 230 232 237 242 248 254 260 265 270 276 281 286 290 294 299 301 303 306 308 311 316 318 319 319 319 319
121 149 174 147 134 180 202 234 195 159 154 235 188 118 125 141 151 151 130 183 265 21 305 254 162 272 274 234 301 341 235 255 262 260 263 262 260 258 258 261 264 270 271 268 267 262 256 249 242 239 236 233 229 226 224 224 225 226 227 229 231 233 237 241 247 253 259 263 269 275 279 285 290 294 298 301 304 307 309 313 318 318 319 321 320 318
75 167 193 151 148 207 207 256 185 173 192 172 133 97 81 77 84 91 120 148 31 353 261 241 169 228 274 217 141 66 200 233 249 252 256 260 260 257 255 256 264 276 278 277 273 267 260 254 249 243 237 234 230 225 224 225 225 226 228 229 231 233 236 241 246 252 258 263 269 274 279 285 291 293 296 301 305 309 312 316 318 319 321 322 320 317
55 71 222 164 170 175 140 84 70 132 139 129 113 77 51 41 57 51 60 95 31 267 258 236 181 193 270 249 166 183 198 208 222 238 252 260 259 253 251 257 270 281 284 282 274 266 260 253 247 241 237 234 229 224 222 223 224 226 228 229 231 233 235 239 245 251 258 264 269 273 278 284 288 291 295 300 305 310 314 316 318 320 322 321 318 316
14 96 258 213 164 130 104 73 40 62 113 117 98 77 34 341 15 18 356 56 262 253 264 251 183 188 242 252 202 226 242 217 206 216 224 235 247 247 248 260 270 279 282 279 272 264 257 248 241 237 235 233 228 223 222 223 224 225 227 229 230 232 235 239 245 250 257 263 268 272 276 282 286 290 296 301 307 312 314 315 317 320 320 318 316 314
289 220 221 170 174 161 125 81 36 15 84 115 100 91 45 325 358 350 301 134 231 252 255 149 153 216 245 246 228 235 250 236 216 212 210 210 235 248 255 261 267 274 276 275 271 265 258 249 243 239 235 231 227 223 223 223 224 225 227 229 230 232 235 239 244 249 256 261 265 270 274 280 285 291 297 304 310 313 314 315 318 320 319 316 315 314
288 289 146 152 224 191 170 161 196 234 175 166 149 129 144 136 67 280 268 276 272 270 273 135 144 252 269 256 219 217 227 224 216 217 219 222 239 253 259 261 264 268 269 271 268 266 262 253 248 245 239 233 228 224 223 223 224 225 227 228 229 232 234 238 243 248 254 258 261 266 272 278 284 291 299 305 309 311 312 315 319 320 318 316 315 315
244 285 197 176 202 178 183 198 175 138 146 180 154 139 159 151 177 235 233 247 274 291 294 209 180 223 251 262 215 214 225 226 223 225 227 238 249 254 257 256 259 262 263 266 265 266 265 257 250 246 242 237 231 226 224 223 224 224 226 228 229 231 234 237 242 246 251 254 258 264 270 277 284 291 297 302 306 308 311 316 318 318 316 315 315 315
220 267 228 172 112 162 180 201 126 112 132 195 124 126 179 176 176 216 212 193 227 319 290 230 222 226 221 285 262 234 235 228 228 232 234 244 248 247 250 251 255 257 258 260 261 263 263 255 249 245 243 238 232 227 225 224 224 224 225 227 228 231 234 237 241 245 247 251 256 262 269 275 282 289 295 299 303 306 311 317 316 315 315 315 315 315
203 272 279 50 355 174 172 167 110 113 170 165 148 177 207 182 140 143 263 39 74 283 273 241 255 270 286 286 233 209 223 223 222 227 230 238 238 236 243 248 250 251 253 256 257 260 260 254 249 246 244 240 233 228 226 224 223 224 225 227 228 229 233 235 240 243 244 247 254 260 266 273 280 287 293 297 302 307 314 317 315 315 315 315 315 315
191 264 258 135 205 266 27 69 55 20 115 132 194 207 175 114 94 110 245 357 30 246 271 287 270 274 281 277 207 184 225 234 229 224 231 237 229 228 239 244 245 245 247 253 254 254 255 252 250 248 245 241 235 230 226 223 222 224 225 227 227 229 232 235 238 240 241 245 250 256 262 270 277 284 292 296 303 311 316 316 315 315 314 314 315 314
175 241 264 117 112 317 27 80 90 4 72 128 203 207 112 140 153 107 166 227 250 240 276 282 276 271 261 251 219 209 217 223 229 226 228 232 219 224 236 239 240 240 243 248 249 249 250 249 249 248 244 239 234 228 223 221 221 223 224 225 227 228 230 234 236 236 239 243 247 253 260 268 276 285 292 298 307 314 316 316 315 315 314 315 315 315
157 210 253 19 348 39 45 175 187 204 54 76 190 281 68 156 172 167 166 180 218 220 262 280 282 275 252 194 190 218 213 205 214 217 217 222 218 222 230 234 234 236 241 245 246 247 249 249 248 246 242 237 231 224 220 219 221 222 223 224 225 227 229 232 233 234 238 241 245 252 259 268 277 285 293 302 311 316 316 316 315 315 315 316 316 317
105 209 231 322 336 237 187 206 199 192 178 160 173 176 192 174 125 203 234 124 145 194 235 266 274 272 256 149 180 210 203 195 198 201 209 217 221 224 229 232 232 235 241 243 244 247 249 249 247 243 239 235 228 221 218 220 221 221 222 223 223 226 229 230 231 232 236 239 244 251 259 268 278 286 296 307 314 316 316 316 315 316 316 317 318 318
153 203 212 184 237 232 227 221 197 191 178 173 186 187 190 181 131 189 252 219 150 194 205 193 258 270 262 126 173 189 170 191 194 196 209 210 217 227 231 232 234 238 241 242 245 249 249 247 245 241 237 231 224 220 219 220 220 220 221 221 223 226 227 228 230 231 234 238 244 252 260 270 280 290 301 311 315 315 315 315 315 317 318 319 320 319
135 137 215 224 228 232 253 295 330 244 164 156 207 194 178 175 157 187 231 231 160 214 219 114 263 268 260 116 135 163 163 194 195 193 205 210 216 226 231 232 237 240 241 243 247 248 248 246 243 240 236 230 223 220 220 220 220 220 221 221 223 226 226 227 228 230 233 238 245 253 263 274 284 296 306 312 313 313 314 314 317 319 320 320 320 320
110 132 211 247 276 303 352 16 354 322 108 141 241 190 166 199 197 203 220 186 168 218 208 97 256 264 272 100 134 185 177 185 196 198 206 215 223 229 231 232 236 240 241 245 247 247 246 244 241 239 236 229 223 220 220 221 220 219 220 221 223 224 225 225 226 228 231 237 246 256 266 277 289 301 309 311 311 312 314 316 319 321 322 322 320 320
162 180 166 199 289 289 287 288 326 330 226 212 236 176 188 219 212 220 331 116 237 225 179 165 249 258 266 93 119 181 192 190 208 213 213 220 229 232 233 235 239 241 244 247 248 247 246 244 243 241 237 230 224 222 221 220 219 219 220 221 223 223 222 223 224 227 232 238 249 259 270 282 295 305 309 310 311 313 316 319 322 323 323 323 321 320
169 184 164 183 231 234 243 246 226 182 185 225 230 179 196 209 203 207 216 218 239 222 161 186 246 254 261 272 258 212 202 232 241 226 226 234 239 239 242 245 247 247 250 251 249 249 248 246 245 242 237 231 226 224 222 220 218 218 219 220 221 221 220 221 223 227 233 241 251 262 275 287 300 306 308 310 311 315 319 322 324 324 324 323 321 320
156 196 187 203 224 225 241 253 226 122 152 215 212 198 204 207 204 204 222 234 230 173 163 226 240 252 271 279 270 244 208 252 264 244 234 242 248 252 255 256 255 255 255 252 250 250 249 247 246 243 238 233 228 225 222 220 218 218 219 219 219 218 218 220 223 227 234 244 253 266 280 292 303 306 308 310 313 318 322 324 324 325 324 322 320 320
119 213 203 214 230 232 246 256 246 176 203 223 207 207 214 208 201 202 222 233 219 123 227 240 242 251 267 270 268 261 253 265 272 268 259 259 260 262 263 261 258 256 254 250 248 249 249 248 247 244 239 234 229 225 221 218 218 218 218 218 217 217 217 219 223 229 236 247 257 271 286 296 303 306 308 312 316 321 324 325 325 324 323 322 321 320
173 223 217 221 235 238 245 253 250 229 224 226 204 212 221 210 202 206 224 234 227 216 239 247 248 250 253 257 262 267 270 264 266 270 270 267 265 263 262 259 256 256 254 249 250 252 250 250 249 245 241 235 228 223 218 216 216 216 216 215 214 215 216 218 223 230 239 250 263 278 291 299 304 307 309 314 319 324 325 325 325 324 323 322 321 320
187 231 231 231 242 245 244 248 248 238 236 238 222 222 232 225 211 212 228 237 234 234 245 257 261 258 255 256 262 277 282 273 270 274 273 268 262 262 262 259 258 259 256 254 257 256 253 252 250 245 240 234 228 223 217 215 215 214 213 213 212 213 215 218 224 231 242 254 268 283 294 301 305 307 311 318 323 325 325 325 324 323 322 322 321 320
199 229 239 244 254 251 247 251 249 237 237 244 245 247 247 241 225 221 235 240 241 246 254 262 265 261 258 260 270 283 280 278 278 275 273 271 268 269 269 267 264 261 259 260 260 257 254 251 246 241 238 234 229 223 217 215 214 212 212 211 211 213 213 217 224 233 244 258 272 286 296 302 305 308 315 321 325 325 325 324 324 323 322 322 321 320
200 226 241 251 257 251 250 255 248 230 234 243 247 249 249 246 237 233 240 240 240 252 260 261 261 256 258 267 274 263 265 268 268 266 268 271 272 271 271 271 268 263 262 264 262 257 254 250 245 242 239 235 229 222 217 215 212 210 210 210 210 210 212 217 225 235 247 262 277 289 298 302 306 312 319 324 325 325 324 324 323 322 322 321 322 321
192 214 228 231 244 252 253 251 224 168 206 236 236 241 246 249 247 245 250 250 235 231 248 255 256 258 266 276 269 257 253 244 254 261 264 267 270 268 267 268 268 266 266 268 265 261 257 254 251 247 241 235 228 222 217 214 211 210 209 208 208 209 212 219 226 237 251 266 281 292 299 303 308 316 322 324 325 324 324 323 322 322 322 322 323 323
194 213 227 222 234 248 244 224 131 161 228 241 234 224 234 243 247 249 255 256 241 225 235 246 258 267 271 270 265 267 268 262 263 265 265 265 266 266 267 267 266 267 269 269 267 265 262 258 252 245 238 233 228 221 215 211 209 209 208 206 207 208 212 219 227 239 254 270 286 294 300 305 311 319 323 324 324 323 323 322 322 321 322 323 324 325
202 211 224 222 237 250 173 134 191 220 228 242 291 245 233 235 243 251 258 259 249 242 243 245 254 263 264 265 267 269 268 269 271 272 270 267 261 262 264 265 265 266 269 269 268 266 263 256 248 240 234 231 226 217 211 207 205 206 205 204 204 206 212 220 228 242 258 275 288 295 300 307 314 320 323 323 322 323 322 321 321 322 322 324 326 326
214 213 222 221 228 236 149 196 226 239 252 312 293 264 246 229 237 255 265 260 245 246 248 246 249 255 259 267 270 266 266 270 274 275 274 267 261 261 260 260 264 265 268 271 270 268 265 257 250 244 236 231 223 213 207 205 203 203 202 201 202 206 212 220 229 244 262 278 289 296 302 309 316 321 322 322 321 321 321 319 321 322 323 325 327 328
215 214 218 223 221 223 226 225 235 270 291 280 264 254 232 200 222 240 257 259 249 247 247 241 245 254 257 261 262 263 268 276 278 276 274 266 263 265 262 263 268 269 269 272 270 266 262 254 247 242 234 228 218 209 204 203 202 201 199 198 201 205 211 220 230 246 265 280 289 297 304 310 317 320 320 320 320 320 319 319 321 324 324 326 328 330
214 215 213 225 226 222 236 242 238 247 247 238 246 250 226 183 205 211 228 258 256 251 247 237 241 252 254 253 256 259 267 275 270 271 272 269 265 266 266 267 270 267 263 261 256 250 246 240 237 234 230 223 212 205 202 200 200 198 197 198 201 204 211 219 231 249 267 281 290 298 306 311 317 319 318 319 319 318 318 319 322 325 326 328 329 331
217 218 219 232 237 225 237 245 231 234 236 229 244 254 224 167 168 147 195 256 253 249 248 240 238 244 245 248 250 236 215 255 255 260 268 270 269 268 269 266 261 255 248 244 244 243 240 235 230 226 222 215 206 200 199 199 198 196 196 198 201 205 211 219 233 252 269 282 292 299 305 311 316 316 316 318 318 317 317 320 323 325 327 330 330 330
213 213 220 229 232 228 234 239 236 244 248 237 250 257 180 149 142 111 253 257 252 243 237 231 231 236 234 235 237 212 196 228 242 258 265 269 271 269 265 258 251 247 240 234 234 236 234 230 225 219 214 208 203 198 196 196 196 194 195 198 200 205 211 221 236 255 271 283 293 299 304 312 315 314 315 317 317 315 317 320 323 326 329 330 331 331
204 205 215 221 226 229 229 237 245 243 238 244 246 192 135 132 133 177 239 250 249 215 208 213 217 224 223 215 207 205 217 228 237 251 260 262 264 261 256 253 248 241 234 233 232 232 231 226 223 219 212 204 199 196 194 194 193 193 194 197 200 204 212 222 239 257 272 285 293 297 304 311 312 313 315 315 314 315 317 321 324 327 330 332 332 332
181 196 213 213 223 228 225 236 248 235 229 235 205 155 147 148 200 224 238 251 255 210 198 209 212 216 217 210 204 213 228 236 238 243 248 251 254 251 248 249 242 228 222 223 224 227 225 217 212 210 204 198 195 194 194 193 192 192 194 196 199 205 212 224 241 258 273 285 290 294 304 310 309 313 315 312 312 314 317 321 326 327 330 333 333 333
177 186 209 200 209 223 224 230 237 234 223 210 178 153 167 204 232 233 242 258 261 252 230 219 221 222 217 210 213 221 232 238 237 236 240 244 246 246 246 246 240 231 227 226 225 223 218 210 204 201 197 193 192 193 193 192 192 193 193 196 200 204 213 226 242 259 273 281 284 291 303 306 307 311 311 308 310 313 318 323 327 328 331 335 335 336
174 184 210 196 193 205 218 215 214 232 216 186 172 185 206 210 225 236 240 248 254 253 246 234 233 234 227 219 222 228 232 235 233 233 234 234 236 240 241 239 237 232 227 224 224 220 213 207 201 196 193 191 189 190 191 190 191 193 193 196 200 204 214 229 242 259 271 274 278 288 299 302 304 307 307 306 308 313 319 324 327 330 334 336 337 339
188 196 217 223 206 205 225 226 214 229 218 186 186 209 217 213 222 233 238 240 245 248 249 245 241 241 236 231 230 231 234 236 234 232 232 232 235 238 238 237 235 231 225 219 216 212 209 205 200 193 189 188 188 188 188 188 191 194 194 195 199 205 217 230 243 258 264 264 270 282 293 296 299 303 304 305 308 314 322 326 328 333 336 338 342 344
205 209 222 231 220 218 236 241 205 215 224 205 206 219 225 223 224 230 237 242 245 247 250 251 249 248 244 238 231 231 238 241 237 233 233 233 234 234 232 231 227 222 217 212 208 206 203 200 197 193 188 186 185 186 186 186 189 194 196 196 199 208 219 229 242 253 253 254 258 269 283 289 294 301 303 304 309 317 325 328 331 335 338 341 346 347
218 222 230 233 224 225 234 224 206 217 224 218 217 223 229 232 232 232 235 240 245 248 251 253 255 255 252 244 236 236 241 242 237 234 233 232 231 230 228 226 223 218 216 214 211 206 200 196 194 192 189 186 184 184 186 185 187 191 195 197 202 210 218 226 237 245 244 246 247 254 269 279 287 297 302 304 310 318 326 330 333 338 341 344 348 349
216 215 225 233 227 229 234 222 216 227 230 226 225 225 227 234 236 236 237 240 244 250 254 255 255 254 251 247 244 242 243 241 237 235 234 232 232 230 226 225 222 217 213 211 209 205 199 195 193 191 189 187 184 184 185 185 187 190 192 197 205 210 215 221 230 236 238 238 240 250 263 271 282 295 301 306 313 320 327 331 335 341 346 349 351 352
283 220 223 243 237 237 244 240 237 247 245 239 236 233 231 234 237 239 241 243 245 250 254 255 255 252 248 249 248 244 241 241 241 240 236 234 233 231 228 225 221 215 210 206 205 204 201 196 193 191 189 187 185 184 183 184 186 187 191 198 206 208 211 219 225 228 231 233 237 251 266 274 285 295 299 306 320 329 332 333 338 347 352 353 355 355
302 268 252 264 252 242 241 234 234 244 250 245 243 240 238 239 240 242 245 247 246 248 250 252 253 252 250 250 250 244 241 244 245 241 237 237 238 237 232 225 217 211 208 204 202 201 199 196 192 190 189 187 185 184 182 183 186 187 191 200 205 205 209 217 222 223 223 228 239 253 267 277 289 296 299 310 331 341 341 339 341 346 351 355 357 355
240 243 240 247 250 250 249 244 241 245 248 250 250 249 247 245 243 243 246 248 247 248 250 250 250 251 250 251 249 244 242 246 247 241 237 238 240 239 233 225 216 210 204 200 197 195 193 193 191 190 189 186 184 183 183 185 186 188 193 200 201 201 206 212 217 221 219 224 239 252 266 280 292 298 303 320 344 353 357 358 350 346 348 353 353 350